Lynchburg, VA

7:53 AM EDT on April 23, 2018 (GMT -0400)
Lynchburg Regional-Glenn

Weather History for KLYH - September, 2012

Change the Weather History Date:

Thursday, September 6, 2012

  Actual Average Record
Temperature  
Mean Temperature 73 °F 70 °F  
Max Temperature 81 °F 82 °F 101 °F (1954)
Min Temperature 65 °F 59 °F 45 °F (1997)
Degree Days  
Heating Degree Days 0 0  
Month to date heating degree days 0 0  
Since 1 July heating degree days 0 3  
Cooling Degree Days 8 6  
Month to date cooling degree days 69 39  
Year to date cooling degree days 1188 937  
Growing Degree Days 23 (Base 50)    
Moisture  
Dew Point 68 °F    
Average Humidity 79    
Maximum Humidity 100    
Minimum Humidity 58    
Precipitation  
Precipitation 0.03 in 0.14 in 6.05 in (1996)
Month to date precipitation 0.93 0.79  
Year to date precipitation 23.48 28.72  
Snow  
Snow 0.00 in - - ()
Month to date snowfall 0.0  
Since 1 July snowfall 0.0  
Since 1 September snowfall 0.0  
Snow Depth 0.00 in    
Sea Level Pressure  
Sea Level Pressure 29.91 in    
Wind  
Wind Speed 3 mph (SE)    
Max Wind Speed 13 mph    
Max Gust Speed 16 mph    
Visibility 6 miles    
Events Fog , Rain    
T = Trace of Precipitation, MM = Missing Value Source: NWS Daily Summary

Daily Weather History Graph

Daily Weather History Graph

Search for Another Location

Airport or City:

Astronomy

Sep. 06, 2012 Rise Set
Actual Time 6:51 AM EDT 7:37 PM EDT
Civil Twilight 6:25 AM EDT 8:03 PM EDT
Nautical Twilight 5:54 AM EDT 8:35 PM EDT
Astronomical Twilight 5:21 AM EDT 9:07 PM EDT
Moon 10:55 PM EDT (9/6) 12:40 PM EDT (9/6)
Length of Visible Light 13h 38m
Length of Day
12h 45m
Waning Gibbous, 67% of the Moon is Illuminated
Sep 6
Waning Gibbous
Sep 8
Last Quarter
Sep 15
New
Sep 22
First Quarter
Sep 29
Full

Hourly Weather History & Observations

Time (EDT) Temp. Heat Index Dew Point Humidity Pressure Visibility Wind Dir Wind Speed Gust Speed Precip Events Conditions
12:54 AM 72.0 °F - 70.0 °F 93% 29.87 in 10.0 mi South 3.5 mph - N/A   Clear
1:54 AM 71.1 °F - 69.1 °F 93% 29.86 in 7.0 mi SSW 5.8 mph - N/A   Clear
2:54 AM 71.1 °F - 70.0 °F 96% 29.87 in 7.0 mi Calm Calm - N/A   Scattered Clouds
3:54 AM 70.0 °F - 69.1 °F 97% 29.86 in 5.0 mi South 3.5 mph - N/A   Clear
3:59 AM 69.8 °F - 68.0 °F 94% 29.89 in 1.8 mi SSW 3.5 mph - N/A   Scattered Clouds
4:04 AM 69.8 °F - 69.8 °F 100% 29.89 in 0.8 mi Calm Calm - N/A   Mostly Cloudy
4:15 AM 69.8 °F - 69.8 °F 100% 29.88 in 0.5 mi Calm Calm - N/A Fog Fog
4:29 AM 69.8 °F - 69.8 °F 100% 29.88 in 1.5 mi Calm Calm - N/A   Overcast
4:48 AM 69.8 °F - 69.8 °F 100% 29.88 in 0.8 mi Calm Calm - N/A   Mist
4:54 AM 70.0 °F - 70.0 °F 100% 29.85 in 0.5 mi Calm Calm - N/A Fog Fog
5:04 AM 69.8 °F - 69.8 °F 100% 29.88 in 1.5 mi South 3.5 mph - N/A   Overcast
5:09 AM 71.6 °F - 69.8 °F 94% 29.88 in 3.0 mi SSW 4.6 mph - N/A   Overcast
5:45 AM 71.6 °F - 69.8 °F 94% 29.89 in 4.0 mi Calm Calm - N/A   Overcast
5:52 AM 71.6 °F - 69.8 °F 94% 29.89 in 4.0 mi Calm Calm - N/A   Overcast
5:54 AM 71.1 °F - 70.0 °F 96% 29.87 in 4.0 mi Calm Calm - N/A   Mostly Cloudy
6:21 AM 71.6 °F - 69.8 °F 94% 29.90 in 5.0 mi SSW 4.6 mph - N/A   Overcast
6:32 AM 71.6 °F - 69.8 °F 94% 29.90 in 6.0 mi Calm Calm - N/A   Overcast
6:54 AM 71.1 °F - 70.0 °F 96% 29.88 in 5.0 mi Calm Calm - N/A   Mostly Cloudy
7:54 AM 72.0 °F - 71.1 °F 97% 29.90 in 3.0 mi SSW 4.6 mph - 0.00 in Rain Light Rain
8:06 AM 71.6 °F - 71.6 °F 100% 29.93 in 4.0 mi Calm Calm - 0.03 in Rain Light Rain
8:21 AM 71.6 °F - 71.6 °F 100% 29.94 in 5.0 mi Calm Calm - 0.03 in   Overcast
8:31 AM 73.4 °F - 71.6 °F 94% 29.94 in 5.0 mi Calm Calm - 0.03 in   Overcast
8:54 AM 73.0 °F - 71.1 °F 93% 29.91 in 6.0 mi Calm Calm - 0.03 in   Overcast
9:28 AM 73.4 °F - 71.6 °F 94% 29.95 in 8.0 mi Calm Calm - N/A   Mostly Cloudy
9:54 AM 75.9 °F - 69.1 °F 79% 29.93 in 10.0 mi North 4.6 mph - N/A   Scattered Clouds
10:54 AM 78.1 °F - 66.0 °F 66% 29.95 in 10.0 mi NNE 12.7 mph - N/A   Partly Cloudy
11:54 AM 78.1 °F - 66.9 °F 68% 29.96 in 10.0 mi NNE 9.2 mph - N/A   Mostly Cloudy
12:54 PM 77.0 °F - 64.9 °F 66% 29.95 in 10.0 mi Variable 4.6 mph - N/A   Mostly Cloudy
1:54 PM 77.0 °F - 64.9 °F 66% 29.94 in 10.0 mi Variable 3.5 mph - N/A   Clear
2:54 PM 79.0 °F - 63.0 °F 58% 29.94 in 10.0 mi NE 5.8 mph - N/A   Clear
3:54 PM 79.0 °F - 63.0 °F 58% 29.93 in 10.0 mi ENE 5.8 mph - N/A   Scattered Clouds
4:54 PM 79.0 °F - 64.9 °F 62% 29.92 in 10.0 mi East 4.6 mph - N/A   Partly Cloudy
5:54 PM 80.1 °F 81.9 °F 64.9 °F 60% 29.93 in 10.0 mi East 6.9 mph - N/A   Clear
6:54 PM 78.1 °F - 66.9 °F 68% 29.94 in 10.0 mi SE 3.5 mph - N/A   Clear
7:54 PM 73.9 °F - 66.0 °F 76% 29.94 in 10.0 mi SE 3.5 mph - N/A   Clear
8:54 PM 69.1 °F - 66.0 °F 90% 29.96 in 10.0 mi Calm Calm - N/A   Clear
9:54 PM 66.9 °F - 66.0 °F 97% 29.97 in 10.0 mi Calm Calm - N/A   Clear
10:54 PM 66.0 °F - 64.9 °F 96% 29.99 in 9.0 mi Calm Calm - N/A   Clear
11:54 PM 66.0 °F - 64.9 °F 96% 29.98 in 5.0 mi Calm Calm - N/A   Clear